This is the latest recevied weather packets stored in our database for station/object W8AN. If no packets are shown the sender has not sent any weather packets the latest 10 day(s).
| Time | Temp. | Humidity | Pressure | Rain* | Wind** | Luminosity | Snow |
|---|---|---|---|---|---|---|---|
| 1778102180 | 11.67° C | 44% | 4267.4 hPa | 0 mm | - | 115 W/m² | - |
| 1778101877 | 12.22° C | 44% | 4267.5 hPa | 0 mm | - | 101 W/m² | - |
| 1778101575 | 12.22° C | 41% | 4267.6 hPa | 0 mm | - | 104 W/m² | - |
| 1778101270 | 12.22° C | 43% | 4267.5 hPa | 0 mm | - | 114 W/m² | - |
| 1778100968 | 12.22° C | 43% | 4267.4 hPa | 0 mm | - | 132 W/m² | - |
| 1778100663 | 12.22° C | 42% | 4267.2 hPa | 0 mm | - | 134 W/m² | - |
| 1778100361 | 12.22° C | 44% | 4267.4 hPa | 0 mm | - | 161 W/m² | - |
| 1778100058 | 12.22° C | 43% | 4267.3 hPa | 0 mm | - | 150 W/m² | - |
| 1778099756 | 12.22° C | 44% | 4267.4 hPa | 0 mm | - | 145 W/m² | - |
| 1778099452 | 12.22° C | 43% | 4267.5 hPa | 0 mm | - | 161 W/m² | - |
| 1778099150 | 12.22° C | 42% | 4267.5 hPa | 0 mm | - | 160 W/m² | - |
| 1778098846 | 12.22° C | 43% | 4267.3 hPa | 0 mm | - | 167 W/m² | - |
| 1778098544 | 12.22° C | 42% | 4267.4 hPa | 0 mm | - | 199 W/m² | - |
| 1778098240 | 12.78° C | 43% | 4267.4 hPa | 0 mm | - | 221 W/m² | - |
| 1778097936 | 12.22° C | 47% | 4267.5 hPa | 0 mm | - | 269 W/m² | - |
| 1778097633 | 12.22° C | 39% | 4267.4 hPa | 0 mm | - | 209 W/m² | - |
| 1778097330 | 12.22° C | 42% | 4267.4 hPa | 0 mm | - | 206 W/m² | - |
| 1778097026 | 12.22° C | 46% | 4267.6 hPa | 0 mm | - | 208 W/m² | - |
| 1778096724 | 12.22° C | 45% | 4267.3 hPa | 0 mm | - | 198 W/m² | - |
| 1778096421 | 12.22° C | 40% | 4267.2 hPa | 0 mm | - | 173 W/m² | - |
| 1778096118 | 12.78° C | 43% | 4267.2 hPa | 0 mm | - | 165 W/m² | - |
| 1778095815 | 12.78° C | 40% | 4267.2 hPa | 0 mm | - | 221 W/m² | - |
| 1778095511 | 12.78° C | 43% | 4267.4 hPa | 0 mm | - | 252 W/m² | - |
| 1778095208 | 12.78° C | 40% | 4267.4 hPa | 0 mm | - | 287 W/m² | - |
| 1778094904 | 12.78° C | 42% | 4267.5 hPa | 0 mm | - | 327 W/m² | - |
* Rain latest hour (hover to see other rain measurements)
** Current wind speed in m/s (hover to see current wind gust speed)